Location: Étang Rond
(42.7927°N, 1.0661°E)
Time: 21:46:48
(UTC+00:00)

Meteor 2-16 Rocket - Pass Details

Date: 08 November 2025
Orbit: 942 x 955 km, 82.6° (Epoch: 13 December)

Event Time Altitude Azimuth Distance (km) Brightness Sun altitude
Rises 05:11:37 0° 195° (SSW) 3,595 7.4 -16.3°
Reaches altitude 10° 05:14:07 10° 198° (SSW) 2,656 6.7 -15.8°
Maximum altitude 05:20:09 66° 280° (W) 1,033 4.4 -14.7°
Drops below altitude 10° 05:26:15 10° 3° (N) 2,682 6.7 -13.6°
Sets 05:28:47 0° 6° (N) 3,634 7.5 -13.1°
